Location: Saratoga Springs
(43.0831°N, 73.7850°W)
Time: 11:07:38
(UTC-04:00)

Vanguard 1 Rocket - Pass Details

Date: 23 April 2024
Orbit: 651 x 4220 km, 34.3° (Epoch: 19 May)

Event Time Altitude Azimuth Distance (km) Brightness Sun altitude
Rises 23:04:40 0° 266° (W) 3,725 10.9 -28.7°
Reaches altitude 10° 23:07:08 10° 255° (WSW) 3,060 10.2 -28.9°
Enters shadow 23:12:14 30° 212° (SSW) 2,478 9.3 -29.3°
